Flagstaff, AZ

8:31 AM MST on June 22, 2017 (GMT -0700)
Flagstaff Pulliam

Weather History for KFLG - November, 2014

Change the Weather History Date:

Tuesday, November 25, 2014

  Actual Average Record
Temperature  
Mean Temperature 33 °F 33 °F  
Max Temperature 53 °F 47 °F 70 °F (1949)
Min Temperature 12 °F 20 °F -8 °F (1906)
Degree Days  
Heating Degree Days 32 32  
Month to date heating degree days 634 687  
Since 1 July heating degree days 1305 1570  
Cooling Degree Days 0 0  
Month to date cooling degree days 0 0  
Year to date cooling degree days 109 117  
Moisture  
Dew Point 3 °F    
Average Humidity 31    
Maximum Humidity 53    
Minimum Humidity 8    
Precipitation  
Precipitation 0.00 in 0.06 in 2.00 in (1985)
Month to date precipitation 0.60 1.46  
Year to date precipitation 17.23 19.69  
Snow  
Snow 0.00 in 0.50 in 8.00 in (1983)
Month to date snowfall T 8.1  
Since 1 July snowfall T 9.6  
Snow Depth 0.00 in    
Sea Level Pressure  
Sea Level Pressure 30.39 in    
Wind  
Wind Speed 4 mph (NNE)    
Max Wind Speed 20 mph    
Max Gust Speed 25 mph    
Visibility 10 miles    
Events      
T = Trace of Precipitation, MM = Missing Value Source: NWS Daily Summary

Daily Weather History Graph

Daily Weather History Graph

Search for Another Location

Airport or City:

Trip Planner

Search our weather history database for the weather conditions in past years. The results will help you decide how hot, cold, wet, or windy it might be!

Date:

Astronomy

Nov. 25, 2014 Rise Set
Actual Time 7:11 AM MST 5:16 PM MST
Civil Twilight 6:43 AM MST 5:43 PM MST
Nautical Twilight 6:12 AM MST 6:14 PM MST
Astronomical Twilight 5:42 AM MST 6:45 PM MST
Moon 10:00 AM MST (11/25) 8:43 PM MST (11/25)
Length of Visible Light 10h 59m
Length of Day
10h 04m
Waxing Crescent, 13% of the Moon is Illuminated
Nov 25
Waxing Crescent
Nov 29
First Quarter
Dec 6
Full
Dec 14
Last Quarter
Dec 21
New

Hourly Weather History & Observations

Time (MST) Temp. Windchill Dew Point Humidity Pressure Visibility Wind Dir Wind Speed Gust Speed Precip Events Conditions
12:57 AM 28.0 °F 15.7 °F -0.9 °F 29% 30.32 in 10.0 mi ENE 17.3 mph - N/A   Clear
1:57 AM 27.0 °F 18.0 °F -0.9 °F 30% 30.36 in 10.0 mi ENE 9.2 mph - N/A   Clear
2:57 AM 25.0 °F 14.8 °F -0.9 °F 33% 30.40 in 10.0 mi ENE 10.4 mph - N/A   Clear
3:57 AM 19.9 °F - -0.9 °F 40% 30.43 in 10.0 mi Calm Calm - N/A   Clear
4:57 AM 15.1 °F - -2.0 °F 47% 30.47 in 10.0 mi Calm Calm - N/A   Clear
5:57 AM 12.9 °F - -2.9 °F 49% 30.48 in 10.0 mi Calm Calm - N/A   Clear
6:57 AM 12.9 °F - -2.9 °F 49% 30.50 in 10.0 mi Calm Calm - N/A   Clear
7:57 AM 17.1 °F 11.7 °F -0.0 °F 47% 30.50 in 10.0 mi ENE 3.5 mph - N/A   Clear
8:57 AM 32.0 °F - -2.9 °F 22% 30.46 in 10.0 mi Calm Calm - N/A   Clear
9:57 AM 39.9 °F 37.8 °F -7.1 °F 14% 30.40 in 10.0 mi Variable 3.5 mph - N/A   Clear
10:57 AM 48.9 °F - -11.9 °F 8% 30.35 in 10.0 mi West 10.4 mph 21.9 mph N/A   Clear
11:57 AM 51.1 °F - -6.0 °F 9% 30.32 in 10.0 mi Variable 6.9 mph 17.3 mph N/A   Clear
12:57 PM 53.1 °F - -0.9 °F 11% 30.30 in 10.0 mi West 9.2 mph 20.7 mph N/A   Clear
1:57 PM 52.0 °F - 5.0 °F 15% 30.29 in - North - - N/A   Unknown
2:57 PM 51.8 °F - 3.2 °F 14% 30.38 in - Variable 6.9 mph 18.4 mph N/A   Clear
3:57 PM 52.0 °F - 8.1 °F 17% 30.32 in 10.0 mi Variable 5.8 mph - N/A   Clear
4:57 PM 48.9 °F - 10.9 °F 22% 30.37 in 10.0 mi Calm Calm - N/A   Clear
5:57 PM 44.1 °F 40.8 °F 10.0 °F 25% 30.41 in 10.0 mi WNW 5.8 mph - N/A   Clear
6:57 PM 42.1 °F 39.2 °F 10.0 °F 27% 30.41 in 10.0 mi Variable 4.6 mph - N/A   Clear
7:57 PM 39.0 °F 35.7 °F 10.9 °F 32% 30.42 in 10.0 mi Variable 4.6 mph - N/A   Clear
8:57 PM 33.1 °F - 10.9 °F 40% 30.38 in 10.0 mi Calm Calm - N/A   Clear
9:57 PM 28.9 °F - 10.9 °F 47% 30.37 in 10.0 mi Calm Calm - N/A   Clear
10:57 PM 26.1 °F 21.9 °F 10.9 °F 53% 30.35 in 10.0 mi SSW 3.5 mph - N/A   Clear
11:57 PM 26.1 °F - 10.9 °F 53% 30.33 in 10.0 mi Calm Calm - N/A   Clear